Tracking 29892 objects as of 21-Nov-2024
HD Live streaming from Space Station
objects crossing your sky now

STARLINK-3918

Track STARLINK-3918 now!
10-day predictions
STARLINK-3918 is classified as:


NORAD ID: 52486
Int'l Code: 2022-049AM
Perigee: 546.1 km
Apogee: 547.8 km
Inclination: 53.2 °
Period: 95.4 minutes
Semi major axis: 6917 km
RCS: Unknown
Launch date: May 6, 2022
Source: United States (US)
Launch site: AIR FORCE EASTERN TEST RANGE (AFETR)
Your satellite tracking list
Your tracking list is empty




NASA's NSSDC Master Catalog

Two Line Element Set (TLE):
1 52486U 22049AM  24326.13313798 -.00000137  00000-0  94740-5 0  9995
2 52486  53.2177  24.9972 0001232  90.6786 269.4347 15.08832509140921
Source of the keplerian elements: AFSPC